Time,TemperatureF,DewpointF,PressureIn,WindDirection,WindDirectionDegrees,WindSpeedMPH,WindSpeedGustMPH,Humidity,HourlyPrecipIn,Conditions,Clouds,dailyrainin,SoftwareType,DateUTC
2013-10-25 00:04:00,55.1,40.0,29.87,East,89,6.0,-999.0,57,-99.99,,,0.00,weatherlink.com 1.10,2013-10-25 06:04:00,
2013-10-25 00:19:00,55.1,39.0,29.87,East,100,7.0,-999.0,55,-99.99,,,0.00,weatherlink.com 1.10,2013-10-25 06:19:00,
2013-10-25 00:34:00,55.3,38.0,29.85,East,91,5.0,-999.0,53,-99.99,,,0.00,weatherlink.com 1.10,2013-10-25 06:34:00,
2013-10-25 00:49:00,54.5,38.0,29.86,NE,56,2.0,-999.0,55,-99.99,,,0.00,weatherlink.com 1.10,2013-10-25 06:49:00,
2013-10-25 01:04:00,53.9,38.0,29.88,East,85,4.0,-999.0,56,-99.99,,,0.00,weatherlink.com 1.10,2013-10-25 07:04:00,
2013-10-25 01:19:00,53.5,39.0,29.87,ESE,108,1.0,-999.0,59,-99.99,,,0.00,weatherlink.com 1.10,2013-10-25 07:19:00,
2013-10-25 01:34:00,52.8,39.0,29.87,ESE,120,4.0,-999.0,60,-99.99,,,0.00,weatherlink.com 1.10,2013-10-25 07:34:00,
2013-10-25 01:49:00,52.8,39.0,29.87,East,94,4.0,-999.0,61,-99.99,,,0.00,weatherlink.com 1.10,2013-10-25 07:49:00,
2013-10-25 02:04:00,52.0,40.0,29.88,East,83,3.0,-999.0,63,-99.99,,,0.00,weatherlink.com 1.10,2013-10-25 08:04:00,
2013-10-25 02:19:00,51.3,39.0,29.88,ENE,58,2.0,-999.0,63,-99.99,,,0.00,weatherlink.com 1.10,2013-10-25 08:19:00,
2013-10-25 02:35:00,50.4,39.0,29.89,NE,56,3.0,-999.0,66,-99.99,,,0.00,weatherlink.com 1.10,2013-10-25 08:35:00,
2013-10-25 02:50:00,51.0,39.0,29.89,NE,54,4.0,-999.0,64,-99.99,,,0.00,weatherlink.com 1.10,2013-10-25 08:50:00,
2013-10-25 03:05:00,50.7,39.0,29.89,NNE,31,4.0,-999.0,65,-99.99,,,0.00,weatherlink.com 1.10,2013-10-25 09:05:00,
2013-10-25 03:20:00,51.6,39.0,29.88,NNE,33,3.0,-999.0,63,-99.99,,,0.00,weatherlink.com 1.10,2013-10-25 09:20:00,
2013-10-25 03:35:00,51.3,39.0,29.91,NNE,30,5.0,-999.0,63,-99.99,,,0.00,weatherlink.com 1.10,2013-10-25 09:35:00,
2013-10-25 03:50:00,49.8,38.0,29.92,NE,36,0.0,-999.0,65,-99.99,,,0.00,weatherlink.com 1.10,2013-10-25 09:50:00,
2013-10-25 04:05:00,49.9,39.0,29.92,NNE,30,2.0,-999.0,66,-99.99,,,0.00,weatherlink.com 1.10,2013-10-25 10:05:00,
2013-10-25 04:20:00,49.8,38.0,29.93,NNE,30,0.0,-999.0,65,-99.99,,,0.00,weatherlink.com 1.10,2013-10-25 10:20:00,
2013-10-25 04:35:00,49.9,38.0,29.94,NNE,30,0.0,-999.0,65,-99.99,,,0.00,weatherlink.com 1.10,2013-10-25 10:35:00,
2013-10-25 04:50:00,49.4,38.0,29.95,NNE,30,0.0,-999.0,66,-99.99,,,0.00,weatherlink.com 1.10,2013-10-25 10:50:00,
2013-10-25 05:05:00,48.8,39.0,29.95,NNE,30,0.0,-999.0,68,-99.99,,,0.00,weatherlink.com 1.10,2013-10-25 11:05:00,
2013-10-25 05:20:00,48.5,39.0,29.95,NNE,30,0.0,-999.0,69,-99.99,,,0.00,weatherlink.com 1.10,2013-10-25 11:20:00,
2013-10-25 05:35:00,48.2,39.0,29.96,NNE,30,0.0,-999.0,70,-99.99,,,0.00,weatherlink.com 1.10,2013-10-25 11:35:00,
2013-10-25 05:51:00,47.9,38.0,29.96,NNE,30,0.0,-999.0,69,-99.99,,,0.00,weatherlink.com 1.10,2013-10-25 11:51:00,
2013-10-25 06:05:00,47.3,38.0,29.97,NNE,30,0.0,-999.0,71,-99.99,,,0.00,weatherlink.com 1.10,2013-10-25 12:05:00,
2013-10-25 06:20:00,47.0,38.0,29.96,NNE,30,0.0,-999.0,71,-99.99,,,0.00,weatherlink.com 1.10,2013-10-25 12:20:00,
2013-10-25 06:35:00,46.8,38.0,29.96,NNE,30,3.0,-999.0,71,-99.99,,,0.00,weatherlink.com 1.10,2013-10-25 12:35:00,
2013-10-25 06:51:00,46.2,37.0,29.96,NNE,30,0.0,-999.0,71,-99.99,,,0.00,weatherlink.com 1.10,2013-10-25 12:51:00,
2013-10-25 07:06:00,46.2,38.0,29.94,NNE,25,4.0,-999.0,72,-99.99,,,0.00,weatherlink.com 1.10,2013-10-25 13:06:00,
2013-10-25 07:20:00,47.0,38.0,29.93,NNE,12,2.0,-999.0,71,-99.99,,,0.00,weatherlink.com 1.10,2013-10-25 13:20:00,
2013-10-25 07:35:00,47.3,37.0,29.97,North,11,2.0,-999.0,68,-99.99,,,0.00,weatherlink.com 1.10,2013-10-25 13:35:00,
2013-10-25 07:51:00,47.7,38.0,29.98,NNE,12,2.0,-999.0,69,-99.99,,,0.00,weatherlink.com 1.10,2013-10-25 13:51:00,
2013-10-25 08:06:00,47.0,38.0,29.99,NNE,12,0.0,-999.0,70,-99.99,,,0.00,weatherlink.com 1.10,2013-10-25 14:06:00,
2013-10-25 08:20:00,46.7,38.0,29.99,NNE,12,0.0,-999.0,71,-99.99,,,0.00,weatherlink.com 1.10,2013-10-25 14:20:00,
2013-10-25 08:36:00,48.2,38.0,30.00,NNE,12,0.0,-999.0,69,-99.99,,,0.00,weatherlink.com 1.10,2013-10-25 14:36:00,
2013-10-25 08:51:00,49.8,40.0,29.99,NNE,12,0.0,-999.0,68,-99.99,,,0.00,weatherlink.com 1.10,2013-10-25 14:51:00,
2013-10-25 09:06:00,52.5,41.0,29.98,NNE,13,2.0,-999.0,64,-99.99,,,0.00,weatherlink.com 1.10,2013-10-25 15:06:00,
2013-10-25 09:22:00,55.4,42.0,29.95,East,81,4.0,-999.0,61,-99.99,,,0.00,weatherlink.com 1.10,2013-10-25 15:22:00,
2013-10-25 09:37:00,56.3,42.0,29.96,ENE,67,4.0,-999.0,59,-99.99,,,0.00,weatherlink.com 1.10,2013-10-25 15:37:00,
2013-10-25 09:52:00,57.8,42.0,29.95,ENE,66,4.0,-999.0,57,-99.99,,,0.00,weatherlink.com 1.10,2013-10-25 15:52:00,
2013-10-25 10:06:00,58.4,42.0,29.95,ESE,109,2.0,-999.0,55,-99.99,,,0.00,weatherlink.com 1.10,2013-10-25 16:06:00,
2013-10-25 10:22:00,59.2,42.0,29.94,East,96,1.0,-999.0,53,-99.99,,,0.00,weatherlink.com 1.10,2013-10-25 16:22:00,
2013-10-25 10:37:00,59.8,41.0,29.92,ENE,70,3.0,-999.0,51,-99.99,,,0.00,weatherlink.com 1.10,2013-10-25 16:37:00,
2013-10-25 10:52:00,59.9,42.0,29.92,SE,141,4.0,-999.0,51,-99.99,,,0.00,weatherlink.com 1.10,2013-10-25 16:52:00,
2013-10-25 11:08:00,60.1,41.0,29.91,NE,56,2.0,-999.0,49,-99.99,,,0.00,weatherlink.com 1.10,2013-10-25 17:08:00,
2013-10-25 11:23:00,61.0,40.0,29.90,ESE,114,3.0,-999.0,47,-99.99,,,0.00,weatherlink.com 1.10,2013-10-25 17:23:00,
2013-10-25 11:38:00,61.8,41.0,29.91,East,87,0.0,-999.0,46,-99.99,,,0.00,weatherlink.com 1.10,2013-10-25 17:38:00,
2013-10-25 11:53:00,61.5,40.0,29.91,ESE,117,3.0,-999.0,46,-99.99,,,0.00,weatherlink.com 1.10,2013-10-25 17:53:00,
2013-10-25 12:07:00,59.8,41.0,29.91,East,86,1.0,-999.0,50,-99.99,,,0.00,weatherlink.com 1.10,2013-10-25 18:07:00,
2013-10-25 12:22:00,62.6,41.0,29.89,East,84,7.0,-999.0,45,-99.99,,,0.00,weatherlink.com 1.10,2013-10-25 18:22:00,
2013-10-25 12:38:00,63.4,41.0,29.88,ENE,75,5.0,-999.0,44,-99.99,,,0.00,weatherlink.com 1.10,2013-10-25 18:38:00,
2013-10-25 12:52:00,62.4,41.0,29.87,NNE,23,3.0,-999.0,46,-99.99,,,0.00,weatherlink.com 1.10,2013-10-25 18:52:00,
2013-10-25 13:08:00,64.8,40.0,29.85,SSE,159,0.0,-999.0,41,-99.99,,,0.00,weatherlink.com 1.10,2013-10-25 19:08:00,
2013-10-25 13:23:00,64.7,40.0,29.85,South,181,3.0,-999.0,40,-99.99,,,0.00,weatherlink.com 1.10,2013-10-25 19:23:00,
2013-10-25 13:38:00,64.8,39.0,29.85,WSW,240,4.0,-999.0,39,-99.99,,,0.00,weatherlink.com 1.10,2013-10-25 19:38:00,
2013-10-25 13:53:00,65.6,40.0,29.84,SW,220,5.0,-999.0,39,-99.99,,,0.00,weatherlink.com 1.10,2013-10-25 19:53:00,
2013-10-25 14:09:00,65.8,40.0,29.83,West,269,4.0,-999.0,39,-99.99,,,0.00,weatherlink.com 1.10,2013-10-25 20:09:00,
2013-10-25 14:24:00,63.7,38.0,29.82,WNW,282,6.0,-999.0,39,-99.99,,,0.00,weatherlink.com 1.10,2013-10-25 20:24:00,
2013-10-25 14:38:00,63.4,38.0,29.83,WSW,245,9.0,-999.0,39,-99.99,,,0.00,weatherlink.com 1.10,2013-10-25 20:38:00,
2013-10-25 14:53:00,63.9,37.0,29.82,WSW,256,10.0,-999.0,37,-99.99,,,0.00,weatherlink.com 1.10,2013-10-25 20:53:00,
2013-10-25 15:09:00,65.2,38.0,29.82,WSW,244,7.0,-999.0,37,-99.99,,,0.00,weatherlink.com 1.10,2013-10-25 21:09:00,
2013-10-25 15:24:00,65.2,37.0,29.82,WSW,237,6.0,-999.0,35,-99.99,,,0.00,weatherlink.com 1.10,2013-10-25 21:24:00,
2013-10-25 15:39:00,65.0,37.0,29.83,West,267,15.0,-999.0,35,-99.99,,,0.00,weatherlink.com 1.10,2013-10-25 21:39:00,
2013-10-25 15:53:00,58.9,38.0,29.88,North,0,9.0,-999.0,47,-99.99,,,0.00,weatherlink.com 1.10,2013-10-25 21:53:00,
2013-10-25 16:08:00,56.5,37.0,29.91,North,1,9.0,-999.0,49,-99.99,,,0.00,weatherlink.com 1.10,2013-10-25 22:08:00,
2013-10-25 16:23:00,56.3,38.0,29.92,North,0,12.0,-999.0,51,-99.99,,,0.00,weatherlink.com 1.10,2013-10-25 22:23:00,
2013-10-25 16:39:00,55.1,39.0,29.93,North,1,9.0,-999.0,55,-99.99,,,0.00,weatherlink.com 1.10,2013-10-25 22:39:00,
2013-10-25 16:54:00,54.5,40.0,29.93,North,11,10.0,-999.0,59,-99.99,,,0.00,weatherlink.com 1.10,2013-10-25 22:54:00,
2013-10-25 17:10:00,54.5,39.0,29.93,North,1,5.0,-999.0,57,-99.99,,,0.00,weatherlink.com 1.10,2013-10-25 23:10:00,
2013-10-25 17:24:00,55.0,39.0,29.93,North,359,5.0,-999.0,55,-99.99,,,0.00,weatherlink.com 1.10,2013-10-25 23:24:00,
2013-10-25 17:39:00,54.8,37.0,29.94,NNW,346,9.0,-999.0,52,-99.99,,,0.00,weatherlink.com 1.10,2013-10-25 23:39:00,
2013-10-25 17:54:00,54.5,38.0,29.94,North,1,5.0,-999.0,55,-99.99,,,0.00,weatherlink.com 1.10,2013-10-25 23:54:00,
2013-10-25 18:10:00,54.5,38.0,29.96,North,1,4.0,-999.0,55,-99.99,,,0.00,weatherlink.com 1.10,2013-10-26 00:10:00,
2013-10-25 18:24:00,54.2,38.0,29.98,NNE,25,0.0,-999.0,55,-99.99,,,0.00,weatherlink.com 1.10,2013-10-26 00:24:00,
2013-10-25 18:39:00,53.3,39.0,29.98,SE,146,4.0,-999.0,59,-99.99,,,0.00,weatherlink.com 1.10,2013-10-26 00:39:00,
2013-10-25 18:55:00,52.0,40.0,30.00,East,98,3.0,-999.0,63,-99.99,,,0.00,weatherlink.com 1.10,2013-10-26 00:55:00,
2013-10-25 19:09:00,51.6,39.0,30.00,SE,137,0.0,-999.0,63,-99.99,,,0.00,weatherlink.com 1.10,2013-10-26 01:09:00,
2013-10-25 19:24:00,51.3,39.0,30.00,ESE,119,0.0,-999.0,64,-99.99,,,0.00,weatherlink.com 1.10,2013-10-26 01:24:00,
2013-10-25 19:39:00,51.1,40.0,30.00,ESE,119,0.0,-999.0,65,-99.99,,,0.00,weatherlink.com 1.10,2013-10-26 01:39:00,
2013-10-25 19:54:00,50.7,39.0,30.00,ESE,119,0.0,-999.0,65,-99.99,,,0.00,weatherlink.com 1.10,2013-10-26 01:54:00,
2013-10-25 20:09:00,50.4,40.0,30.00,ESE,120,0.0,-999.0,68,-99.99,,,0.00,weatherlink.com 1.10,2013-10-26 02:09:00,
2013-10-25 20:24:00,49.9,40.0,30.01,ESE,120,0.0,-999.0,69,-99.99,,,0.00,weatherlink.com 1.10,2013-10-26 02:24:00,
2013-10-25 20:39:00,49.4,40.0,29.96,ESE,120,0.0,-999.0,70,-99.99,,,0.00,weatherlink.com 1.10,2013-10-26 02:39:00,
2013-10-25 20:54:00,49.1,40.0,29.96,ESE,123,0.0,-999.0,71,-99.99,,,0.00,weatherlink.com 1.10,2013-10-26 02:54:00,
2013-10-25 21:09:00,48.9,40.0,29.96,SSE,156,0.0,-999.0,72,-99.99,,,0.00,weatherlink.com 1.10,2013-10-26 03:09:00,
2013-10-25 21:24:00,48.8,40.0,29.98,South,176,0.0,-999.0,72,-99.99,,,0.00,weatherlink.com 1.10,2013-10-26 03:24:00,
2013-10-25 21:39:00,48.0,40.0,29.97,South,176,0.0,-999.0,74,-99.99,,,0.00,weatherlink.com 1.10,2013-10-26 03:39:00,
2013-10-25 21:54:00,47.6,40.0,29.97,South,176,0.0,-999.0,75,-99.99,,,0.00,weatherlink.com 1.10,2013-10-26 03:54:00,
2013-10-25 22:09:00,47.1,40.0,29.97,South,176,0.0,-999.0,75,-99.99,,,0.00,weatherlink.com 1.10,2013-10-26 04:09:00,
2013-10-25 22:24:00,46.5,40.0,29.97,South,176,0.0,-999.0,77,-99.99,,,0.00,weatherlink.com 1.10,2013-10-26 04:24:00,
2013-10-25 22:39:00,44.9,38.0,29.96,South,176,2.0,-999.0,76,-99.99,,,0.00,weatherlink.com 1.10,2013-10-26 04:39:00,
2013-10-25 22:54:00,42.9,37.0,29.99,WSW,252,1.0,-999.0,80,-99.99,,,0.00,weatherlink.com 1.10,2013-10-26 04:54:00,
2013-10-25 23:09:00,43.6,38.0,29.98,West,260,5.0,-999.0,81,-99.99,,,0.00,weatherlink.com 1.10,2013-10-26 05:09:00,
2013-10-25 23:24:00,42.9,38.0,29.99,West,265,4.0,-999.0,82,-99.99,,,0.00,weatherlink.com 1.10,2013-10-26 05:24:00,
2013-10-25 23:39:00,42.3,38.0,29.99,West,265,3.0,-999.0,84,-99.99,,,0.00,weatherlink.com 1.10,2013-10-26 05:39:00,
2013-10-25 23:54:00,42.9,38.0,29.99,West,265,0.0,-999.0,84,-99.99,,,0.00,weatherlink.com 1.10,2013-10-26 05:54:00,